FW7632 Weather Reports


Display with metric or nautical units.
time (UTC)temp
F
wind
direction
speed
MPH
gust
MPH
rain 1hr
in
rain 24hr
in
rain mn
in
humidity
%
barometer
mb
20260905143025 72 350 4.0 9.0 0.00 0.00 0.00 2 1011.4
20260905141522 70 12 4.0 13.0 0.00 0.00 0.00 1 1011.5
20260905140016 69 46 2.0 10.0 0.00 0.00 0.00 1 1011.5
20260905134512 67 329 2.0 5.0 0.00 0.00 0.00 1 1011.5
20260905133006 65 254 2.0 5.0 0.00 0.00 0.00 1 1011.6
20260905131501 64 238 1.0 3.0 0.00 0.00 0.00 1 1011.4
20260905130100 63 238 0.0 3.0 0.00 0.00 0.00 1 1011.5
20260905124553 63 217 0.0 2.0 0.00 0.00 0.00 1 1011.9
20260905123049 62 236 1.0 2.0 0.00 0.00 0.00 1 1012.1
20260905121545 61 250 0.0 4.0 0.00 0.00 0.00 1 1012.0
20260905120043 61 236 0.0 2.0 0.00 0.00 0.00 1 1011.9
20260905114536 61 247 0.0 1.0 0.00 0.00 0.00 1 1011.3
20260905113031 60 231 0.0 1.0 0.00 0.00 0.00 1 1011.2
20260905111547 59 227 0.0 0.0 0.00 0.00 0.00 1 1011.3
20260905110026 59 238 0.0 2.0 0.00 0.00 0.00 1 1011.1
20260905104517 59 238 1.0 3.0 0.00 0.00 0.00 1 1010.8
20260905103016 59 238 0.0 4.0 0.00 0.00 0.00 1 1010.6
20260905101509 59 238 0.0 0.0 0.00 0.00 0.00 1 1010.4
20260905100007 60 238 0.0 1.0 0.00 0.00 0.00 1 1010.3
20260905094600 60 238 0.0 1.0 0.00 0.00 0.00 1 1010.2
20260905093057 60 238 0.0 1.0 0.00 0.00 0.00 1 1010.2
20260905091553 60 238 0.0 1.0 0.00 0.01 0.00 1 1010.2
20260905090048 60 238 0.0 1.0 0.00 0.01 0.00 1 1010.2
20260905084543 61 238 0.0 0.0 0.00 0.01 0.00 1 1010.1
20260905083039 61 238 0.0 2.0 0.00 0.01 0.00 1 1010.2
20260905081535 61 238 0.0 1.0 0.00 0.01 0.00 1 1010.3
20260905080030 62 238 0.0 0.0 0.00 0.01 0.00 1 1010.3
20260905074526 62 238 0.0 1.0 0.00 0.01 0.00 1 1010.3
20260905073024 62 238 0.0 2.0 0.00 0.01 0.00 1 1010.4
20260905071534 63 238 1.0 3.0 0.00 0.01 0.00 1 1010.4
20260905070012 63 238 0.0 2.0 0.00 0.01 0.00 1 1010.6
20260905064508 63 238 0.0 4.0 0.00 0.01 0.00 1 1010.6
20260905063004 63 273 2.0 6.0 0.00 0.01 0.00 1 1010.6
20260905061609 63 346 1.0 3.0 0.00 0.01 0.00 1 1010.8
20260905060055 63 346 0.0 1.0 0.00 0.01 0.00 1 1010.8
20260905054551 63 346 0.0 2.0 0.00 0.01 0.00 1 1010.8
20260905053115 63 346 0.0 2.0 0.00 0.01 0.00 1 1011.0
20260905051544 64 346 0.0 1.0 0.00 0.02 0.00 1 1011.0
20260905050038 64 346 0.0 1.0 0.00 0.02 0.00 1 1011.2
20260905044532 65 346 0.0 1.0 0.00 0.02 0.00 1 1011.3
20260905043029 66 346 0.0 0.0 0.00 0.02 0.00 1 1011.3
20260905041526 67 345 1.0 2.0 0.00 0.32 0.02 1 1011.3
20260905040023 68 346 0.0 1.0 0.00 0.32 0.02 1 1011.3
20260905034515 68 345 0.0 2.0 0.00 0.32 0.02 1 1011.2
20260905033010 69 344 0.0 3.0 0.00 0.32 0.02 1 1011.1
20260905031507 69 344 0.0 2.0 0.00 0.34 0.02 1 1011.1
20260905030002 69 343 0.0 1.0 0.00 0.34 0.02 1 1011.1
20260905024615 70 342 0.0 1.0 0.00 0.34 0.02 1 1011.0
20260905023100 70 342 0.0 2.0 0.00 0.34 0.02 1 1011.0
20260905021549 70 342 0.0 3.0 0.00 0.34 0.02 1 1011.1
20260905020047 70 339 0.0 3.0 0.00 0.34 0.02 1 1011.2
20260905014540 70 333 1.0 4.0 0.00 0.34 0.02 5 1011.2
20260905013035 71 331 1.0 3.0 0.00 0.34 0.02 6 1011.4
20260905011534 71 330 0.0 2.0 0.00 0.34 0.02 3 1011.2
20260905010027 71 317 0.0 3.0 0.00 0.34 0.02 5 1011.1
20260905004524 72 339 0.0 2.0 0.00 0.34 0.02 10 1010.9
20260905003018 72 340 0.0 3.0 0.00 0.34 0.02 15 1010.7
20260905001514 73 344 1.0 4.0 0.00 0.34 0.02 21 1010.7
20260905000009 73 344 1.0 5.0 0.00 0.34 0.02 27 1010.5
20260904234505 74 346 1.0 3.0 0.00 0.34 0.02 32 1010.5
20260904233002 74 346 1.0 4.0 0.00 0.34 0.02 35 1010.3
20260904231557 75 348 0.0 4.0 0.00 0.34 0.02 39 1010.4
20260904230054 76 348 1.0 5.0 0.00 0.34 0.02 43 1010.1
20260904224602 77 315 2.0 4.0 0.00 0.34 0.02 46 1010.2
20260904223049 78 331 2.0 5.0 0.00 0.34 0.02 47 1010.2
20260904221539 78 333 3.0 8.0 0.00 0.34 0.02 47 1010.1
20260904220037 79 333 2.0 10.0 0.00 0.34 0.02 47 1010.0
20260904214540 79 351 3.0 9.0 0.00 0.34 0.02 47 1009.9
20260904213033 79 307 2.0 8.0 0.00 0.34 0.02 46 1010.0
20260904211525 80 313 3.0 8.0 0.00 0.34 0.02 46 1010.1
20260904210026 79 328 2.0 5.0 0.00 0.34 0.02 46 1010.2
20260904204521 78 321 1.0 8.0 0.00 0.34 0.02 47 1010.3
20260904203008 79 340 1.0 8.0 0.00 0.34 0.02 47 1010.5
20260904201506 80 336 3.0 8.0 0.00 0.34 0.02 46 1010.5
20260904200119 80 297 2.0 8.0 0.00 0.34 0.02 47 1010.8
20260904194606 81 351 4.0 9.0 0.00 0.34 0.02 45 1010.9
20260904193053 82 307 3.0 11.0 0.00 0.34 0.02 45 1010.9
20260904191553 83 331 4.0 10.0 0.00 0.34 0.02 45 1011.0
20260904190042 82 346 3.0 10.0 0.00 0.34 0.02 45 1011.1
20260904184537 82 310 2.0 13.0 0.00 0.34 0.02 44 1011.2
20260904183033 81 305 4.0 12.0 0.00 0.34 0.02 44 1011.2
20260904181528 81 346 5.0 14.0 0.00 0.34 0.02 43 1011.5
20260904180024 81 294 4.0 11.0 0.00 0.34 0.02 40 1011.6
20260904174527 80 327 3.0 11.0 0.00 0.34 0.02 39 1011.8
20260904173014 80 302 3.0 11.0 0.00 0.34 0.02 39 1011.8
20260904171518 81 342 2.0 9.0 0.00 0.34 0.02 39 1011.8
20260904170005 82 15 4.0 8.0 0.00 0.34 0.02 38 1012.0
20260904164502 81 344 2.0 9.0 0.00 0.34 0.02 35 1011.9
20260904163056 79 302 3.0 9.0 0.00 0.34 0.02 34 1011.9
20260904161552 79 348 1.0 9.0 0.00 0.34 0.02 33 1012.0
20260904160048 80 283 3.0 9.0 0.00 0.34 0.02 33 1012.0
20260904154544 79 295 2.0 7.0 0.00 0.34 0.02 31 1012.1
20260904153040 80 360 1.0 10.0 0.00 0.34 0.02 28 1012.1
20260904151535 79 321 3.0 9.0 0.00 0.34 0.02 24 1012.2
20260904150056 78 343 2.0 9.0 0.00 0.34 0.02 20 1012.2
20260904144526 78 351 3.0 12.0 0.00 0.34 0.02 12 1012.3